Zurück zum Katalog

ARIANE 44LP DEB

LostGTO
NORAD 26810·DEBRIS·🇫🇷 France

Gestartet Dec 11, 1988 von Guiana Space Centre

Loading…

TLE

VeraltetSource: Space-Track

Epoche: Oct 16, 2025, 05:15 UTC

1 26810U 88109M   25289.21886441 -.00005314  00000-0 -29492+0 0  9993
2 26810   6.1927 177.4953 7141063 190.8884 298.9242  2.16124452107168

Verfolge ARIANE 44LP DEB in Echtzeit mit AllMySat

Download on the App Store